Location: Luxembourg
(49.6117°N, 6.1300°E)
Time: 14:54:30
(UTC+01:00)

Envisat - Pass Details

Date: 29 January 2019
Orbit: 764 x 766 km, 98.2° (Epoch: 22 February)

Event Time Altitude Azimuth Distance (km) Brightness Sun altitude
Rises 18:28:41 0° 145° (SE) 3,223 6.0 -10.4°
Reaches altitude 10° 18:31:03 10° 139° (SE) 2,301 5.2 -10.7°
Maximum altitude 18:35:52 45° 68° (ENE) 1,037 3.3 -11.5°
Drops below altitude 10° 18:40:42 10° 357° (N) 2,315 5.4 -12.3°
Sets 18:43:05 0° 351° (N) 3,246 6.2 -12.6°
